sat.trackr.live / text

‹ back to catalog

2025-108F

NORAD 64092 · 2025-108F

PAYLOAD ACTIVE UNKNOWN

§ Identity

Operator
Country
PRC
Launch date
2025-05-21
Launch site
JSC
Launch vehicle
Mass (kg)
RCS (m²)

External: N2YO · Heavens-Above · Gunter

§ Orbital elements

Epoch: 2026-09-21T21:56:22.206624Z

Period
94.07 min
Inclination
97.4625°
Eccentricity
0.0010306
Mean motion
15.30748475 rev/d
Perigee alt
466.5 km
Apogee alt
480.6 km
Semi-major
6,851.7 km
B*
4.8384e-4
RAAN
342.9708°
Arg perigee
26.9440°
Mean anomaly
333.2334°
Rev number
7,428

§ Raw data

2025-108F1 64092U 25108F   26264.91414591  .00014335  00000+0  48384-3 0  99962 64092  97.4625 342.9708 0010306  26.9440 333.2334 15.30748475 74280

JSON: /api/v1/satellites/64092 · /tle

For live sub-satellite position, see the globe view (requires WebGL).

§ Visibility from observer

Set your observer location to see the next 7 days of passes ≥ 10°. The values pass through the URL so the page stays shareable.

No JS? Fill the form by hand. The geolocation button needs JavaScript.